This is the latest recevied weather packets stored in our database for station/object IZ8GMP-13. If no packets are shown the sender has not sent any weather packets the latest 1 day(s).
| Time | Temp. | Humidity | Pressure | Rain* | Wind** | Luminosity | Snow |
|---|---|---|---|---|---|---|---|
| 1788598382 | 28.89° C | 59% | 1019 hPa | - | - | - | - |
| 1788597178 | 28.33° C | 65% | 1018.9 hPa | - | - | - | - |
| 1788595975 | 28.33° C | 69% | 1018.8 hPa | - | - | - | - |
| 1788594771 | 27.78° C | 70% | 1018.7 hPa | - | - | - | - |
| 1788593568 | 27.78° C | 69% | 1018.7 hPa | - | - | - | - |
| 1788592365 | 27.78° C | 69% | 1018.6 hPa | - | - | - | - |
| 1788591161 | 27.78° C | 57% | 1018.6 hPa | - | - | - | - |
| 1788589958 | 28.33° C | 53% | 1018.6 hPa | - | - | - | - |
| 1788587551 | 27.78° C | 47% | 1018.5 hPa | - | - | - | - |
| 1788586347 | 27.78° C | 48% | 1018.4 hPa | - | - | - | - |
| 1788585144 | 27.22° C | 51% | 1018.3 hPa | - | - | - | - |
| 1788583940 | 27.22° C | 48% | 1018.2 hPa | - | - | - | - |
| 1788582737 | 27.22° C | 52% | 1018 hPa | - | - | - | - |
| 1788581533 | 27.22° C | 53% | 1017.9 hPa | - | - | - | - |
| 1788580330 | 27.22° C | 55% | 1017.8 hPa | - | - | - | - |
| 1788579126 | 27.78° C | 51% | 1017.6 hPa | - | - | - | - |
| 1788577923 | 27.78° C | 49% | 1017.6 hPa | - | - | - | - |
| 1788576719 | 28.33° C | 45% | 1017.5 hPa | - | - | - | - |
| 1788574312 | 28.33° C | 50% | 1017.4 hPa | - | - | - | - |
| 1788573109 | 27.78° C | 54% | 1017.5 hPa | - | - | - | - |
| 1788571906 | 27.22° C | 58% | 1017.6 hPa | - | - | - | - |
| 1788570702 | 27.22° C | 64% | 1017.6 hPa | - | - | - | - |
| 1788569499 | 27.22° C | 65% | 1017.6 hPa | - | - | - | - |
| 1788568295 | 27.22° C | 65% | 1017.7 hPa | - | - | - | - |
| 1788567092 | 27.22° C | 66% | 1017.6 hPa | - | - | - | - |
* Rain since midnight (hover to see other rain measurements)
** Current wind speed in m/s (hover to see current wind gust speed)